Tracking 25410 objects as of 21-Jan-2022
HD Live streaming from Space Station
objects crossing your sky now

COSMOS 2292

Track COSMOS 2292 now!
10-day predictions
COSMOS 2292 is classified as:


NORAD ID: 23278
Int'l Code: 1994-061A
Perigee: 402.9 km
Apogee: 1,700.0 km
Inclination: 83.0 °
Period: 106.1 minutes
Semi major axis: 7422 km
RCS: 2.958 m2 (large)
Launch date: September 27, 1994
Source: Commonwealth of Independent States (former USSR) (CIS)
Launch site: PLESETSK MISSILE AND SPACE COMPLEX (PKMTR)
aabbcc
Your satellite tracking list
Your tracking list is empty




NASA's NSSDC Master Catalog

Two Line Element Set (TLE):
1 23278U 94061A   22020.93140090  .00001705  00000-0  15061-3 0  9993
2 23278  82.9792  13.0634 0873786 303.2492  48.7826 13.57639839338799
Source of the keplerian elements: AFSPC